Temp
12 12 12 12 12 12 12 11 11 11 11 11 11 11 11 11 11 11 11 11 10 10 10 10 10 10 10 10 9 9 10 10 10 9 9 9 9 9 9 9 9 9 9 8 8 8 8 8 8 8 8 8 8 8 8 8 8 7 7 7 7 7 8 8 8 8 8 8 8 8 8 8 8 8 8 8 8 8 8 8 8 8 7 7 7
12 12 12 12 12 12 12 11 11 11 11 11 11 11 11 11 10 10 10 10 10 10 10 10 10 10 9 9 9 9 9 9 9 9 9 9 9 9 9 9 9 9 9 9 8 8 8 8 8 8 8 8 8 8 8 8 8 8 8 7 8 8 8 8 8 8 8 8 8 8 8 8 8 8 8 8 8 8 8 8 7 7 7 7 7
12 12 12 12 12 12 12 11 11 11 11 11 11 11 11 10 10 10 10 10 10 10 10 10 10 10 9 9 9 9 9 9 9 9 9 9 9 9 9 9 9 9 9 9 8 8 8 8 8 8 8 8 8 8 8 8 8 8 8 8 8 8 8 8 8 8 8 8 8 8 8 8 8 8 8 8 8 8 8 7 7 7 7 7 7
12 12 12 12 12 12 12 11 11 11 11 11 11 11 11 10 10 10 10 10 10 10 10 10 10 9 9 9 9 9 9 9 9 9 9 9 9 9 9 9 9 9 9 9 8 8 8 8 8 8 8 8 8 8 8 8 8 8 8 8 8 8 8 8 8 8 8 8 8 8 8 8 8 8 8 8 8 8 7 7 7 7 7 7 7
12 12 12 12 12 12 12 11 11 11 11 11 11 11 11 10 10 10 10 10 10 10 10 10 9 9 9 9 9 9 9 9 9 9 9 9 9 9 9 9 9 9 8 8 8 8 8 8 8 8 8 8 8 8 8 8 8 8 8 8 8 8 8 7 7 7 8 8 8 8 8 7 8 8 7 7 7 7 7 7 7 7 7 6 6
13 12 12 12 12 12 11 11 11 11 11 11 11 11 11 10 10 10 10 10 10 10 10 10 9 9 9 9 9 9 9 9 9 9 9 9 9 9 9 9 8 8 8 8 8 8 8 8 8 8 8 8 8 8 8 8 8 8 8 8 8 7 7 7 7 7 7 8 8 8 7 7 7 7 7 7 7 7 7 7 7 6 6 6 6
13 12 12 12 12 12 11 11 11 11 11 11 11 11 11 10 10 10 10 10 10 10 10 10 9 9 9 9 9 9 9 9 9 9 9 9 9 9 9 8 8 8 8 8 8 8 8 8 8 8 8 8 8 8 8 8 8 8 8 8 7 7 7 7 7 7 7 8 7 7 7 6 7 7 7 7 7 7 7 7 6 6 6 6 6
13 12 12 12 12 11 11 11 11 11 11 11 11 11 11 10 10 10 10 10 10 10 10 9 9 9 9 9 9 9 9 9 9 9 9 9 9 9 9 8 8 8 8 8 8 8 8 8 8 8 8 8 8 8 7 7 7 7 7 7 7 7 7 7 7 7 7 7 7 6 6 6 6 6 6 6 6 6 6 6 6 6 6 6 6
13 12 12 12 12 11 11 11 11 11 11 11 11 11 11 10 10 10 10 10 10 10 10 9 9 9 9 9 9 9 9 9 9 9 9 9 8 8 8 8 8 8 8 8 8 8 8 8 8 8 8 8 7 7 7 7 7 7 7 7 7 7 7 7 7 7 7 7 6 6 6 6 6 6 6 6 6 6 6 6 6 6 6 6 6
13 13 12 12 12 11 11 11 11 11 11 11 11 11 11 10 10 10 10 10 10 10 9 9 9 9 9 9 9 9 9 9 9 9 8 8 8 8 8 8 8 8 8 8 8 8 8 7 7 7 7 7 7 7 7 7 7 7 7 7 6 6 6 7 7 7 7 6 6 6 6 6 6 6 6 6 6 6 6 6 6 6 6 6 6
13 13 12 12 12 11 11 11 11 11 11 11 11 11 10 10 10 10 10 10 9 9 9 9 9 9 9 9 9 9 9 8 8 8 8 8 8 8 8 8 8 8 8 7 7 7 7 7 7 7 7 7 7 7 7 7 7 7 7 6 6 6 6 6 7 7 6 6 6 6 6 6 6 6 6 6 6 6 6 6 6 6 6 6 6
13 12 12 12 12 11 11 11 11 11 11 11 11 11 10 10 10 10 10 9 9 9 9 9 9 9 9 9 9 8 8 8 8 8 8 8 8 8 8 8 8 8 7 7 7 7 7 7 7 7 7 7 7 7 7 7 6 6 6 6 6 6 6 6 7 7 6 6 6 6 6 6 6 6 6 6 6 6 6 6 6 6 6 6 6
13 12 12 12 12 11 11 11 11 11 11 11 11 11 10 10 10 10 10 9 9 9 9 9 9 9 9 9 8 8 8 8 8 8 8 8 8 8 8 8 8 7 7 7 7 7 7 7 7 7 7 7 7 7 7 6 6 6 6 6 6 6 6 6 7 7 6 6 6 6 6 6 6 6 6 6 6 6 6 6 6 6 6 6 6
13 12 12 12 12 11 11 11 11 11 11 11 11 11 10 10 10 10 10 9 9 9 9 9 9 9 9 8 8 8 8 8 8 8 8 8 8 8 8 7 7 7 7 7 7 7 7 7 7 7 7 7 7 6 6 6 6 6 6 6 6 6 6 6 6 6 6 6 6 6 6 5 6 5 5 6 6 6 6 6 6 6 6 6 6
13 12 12 12 12 11 11 11 11 11 11 11 11 11 10 10 10 10 9 9 9 9 9 9 9 9 8 8 8 8 8 8 8 8 8 8 8 7 7 7 7 7 7 7 7 7 7 7 7 7 7 6 6 6 6 6 6 6 6 6 6 6 6 6 6 6 5 6 6 6 6 6 6 5 5 5 5 6 6 6 6 6 6 6 6
13 12 12 12 11 11 11 11 11 11 11 11 10 10 10 10 10 10 9 9 9 9 9 9 9 8 8 8 8 8 8 8 8 8 8 8 7 7 7 7 7 7 7 7 7 6 6 6 6 6 6 6 6 6 6 6 6 6 6 6 6 6 6 6 6 6 5 6 6 6 6 6 5 5 5 5 5 5 5 6 6 6 6 6 6
12 11 11 11 11 11 11 11 11 11 11 10 10 10 10 10 10 9 9 9 9 9 9 9 9 8 8 8 8 8 8 8 8 8 8 7 7 7 7 7 7 7 7 7 7 6 6 6 6 6 6 6 6 6 6 6 6 6 6 6 6 6 6 6 6 6 6 6 6 6 6 6 5 5 5 5 5 5 5 5 5 5 5 5 6
12 11 11 11 11 11 11 11 10 11 10 10 10 10 10 10 10 9 9 9 9 9 9 9 8 8 8 8 8 8 8 8 8 7 7 7 7 7 7 7 7 7 7 7 6 6 6 6 6 6 6 6 6 6 6 6 6 6 6 6 6 5 6 6 5 6 6 6 6 5 5 5 5 5 5 5 5 5 6 6 6 6 5 5 5
11 11 11 11 11 11 11 10 10 10 10 10 10 10 10 10 9 9 9 9 9 9 9 8 8 8 8 8 8 8 8 8 8 7 7 7 7 7 7 7 6 6 6 7 6 6 6 6 6 6 6 6 6 6 6 6 6 6 6 5 5 5 5 6 5 5 5 6 5 5 5 5 5 5 5 5 5 5 5 6 6 6 6 6 6
11 11 11 11 11 10 10 10 10 10 10 10 10 10 10 9 9 9 9 9 9 9 8 8 8 8 8 8 8 8 8 8 7 7 7 7 7 7 7 7 6 6 6 6 6 6 6 6 6 6 6 6 6 6 6 6 5 5 5 5 5 5 5 5 5 5 5 6 6 5 5 5 5 5 5 5 5 5 5 6 6 6 6 6 6
10 10 10 10 10 10 10 10 10 10 10 10 10 10 9 9 9 9 9 9 9 8 8 8 8 8 8 8 8 8 7 7 7 7 7 7 7 7 7 7 6 6 6 6 6 6 6 6 6 6 6 6 6 6 6 6 5 5 5 5 5 5 5 5 5 5 5 6 5 5 6 5 5 5 5 5 5 5 5 5 5 6 6 6 6
10 10 10 10 10 10 10 10 10 10 10 10 10 10 9 9 9 9 9 9 8 8 8 8 8 8 8 8 8 7 7 7 7 7 7 7 7 7 7 7 6 6 6 6 6 6 6 6 6 6 6 6 6 6 6 6 6 5 5 5 5 5 5 5 5 5 5 6 5 5 5 5 5 5 5 5 5 5 5 5 5 5 5 5 5
10 9 10 10 9 9 10 10 10 10 10 10 10 10 9 9 9 9 9 9 8 8 8 8 8 8 8 8 7 7 7 7 7 7 7 7 7 7 7 7 6 6 6 6 6 6 6 6 6 6 6 6 6 6 6 6 6 5 5 5 5 5 5 5 5 5 5 5 5 5 5 5 5 5 5 5 5 5 5 5 5 5 5 5 5
9 9 9 9 9 9 9 10 10 10 10 10 10 9 9 9 9 9 9 8 8 8 8 8 8 8 8 7 7 7 7 7 7 7 7 7 7 6 6 6 6 6 6 6 6 6 6 6 6 6 6 6 6 6 6 6 5 5 5 5 5 5 5 5 5 5 5 5 5 5 5 5 5 5 5 5 5 5 5 5 5 5 5 5 5
9 9 9 9 9 9 9 10 10 10 10 10 10 9 9 9 9 9 9 9 8 8 8 8 8 8 7 7 7 7 7 7 7 7 6 6 6 6 6 6 6 6 6 6 6 6 6 6 6 6 6 6 6 6 5 5 5 5 5 5 5 5 5 5 5 5 5 5 5 5 5 5 5 5 5 5 5 5 5 5 5 5 5 5 5
9 9 9 9 9 9 9 9 10 10 10 10 10 9 9 9 9 9 8 8 8 8 8 8 8 8 7 7 7 7 7 6 6 6 6 6 6 6 6 6 6 6 6 6 6 6 6 6 6 6 6 6 6 6 5 5 5 5 5 5 5 5 5 5 5 4 4 5 5 5 5 5 5 5 5 5 5 5 5 5 5 5 5 5 5
9 8 9 9 9 9 9 9 10 10 10 10 10 9 9 9 9 8 8 8 8 8 8 8 7 7 7 7 7 7 6 6 6 6 6 6 6 6 6 6 6 6 6 6 6 6 5 5 6 6 6 6 6 5 5 5 5 5 4 5 5 5 5 5 5 4 4 4 5 5 5 5 5 5 5 5 5 5 5 5 5 5 5 5 5
9 8 9 9 9 9 9 9 9 9 9 10 9 9 9 9 8 8 8 8 8 8 7 7 7 7 7 7 7 6 6 6 6 6 6 6 6 6 6 6 6 6 6 6 6 6 5 5 5 5 5 5 5 5 5 5 5 5 4 4 4 4 4 4 4 4 4 4 5 5 4 4 4 4 4 4 4 4 5 5 5 5 5 5 5
8 9 9 9 9 9 9 9 9 9 9 10 9 9 9 8 8 8 8 7 7 7 7 7 7 7 7 7 7 7 6 6 6 6 6 6 6 6 6 5 5 6 6 6 6 6 6 5 5 5 5 5 6 5 5 5 5 5 5 5 4 4 4 4 4 4 4 4 5 4 4 4 4 4 4 4 4 4 4 4 5 5 5 5 5
9 9 10 9 9 9 9 9 9 9 9 9 9 9 8 8 8 8 7 7 7 7 7 7 7 7 7 7 7 6 6 6 6 6 6 6 6 6 5 5 5 6 6 6 6 6 6 6 6 5 5 5 6 6 6 5 5 5 5 5 5 5 4 4 4 4 4 4 5 4 4 4 4 4 4 4 4 4 4 4 4 5 5 5 5
9 10 10 10 9 9 9 9 9 9 9 9 9 8 7 7 7 7 7 7 7 7 7 7 7 7 7 7 6 6 6 6 6 6 6 6 6 6 6 5 5 6 6 6 6 6 6 6 6 6 5 6 6 6 6 6 5 5 5 5 5 5 5 5 4 4 4 4 4 4 4 4 4 4 4 4 4 4 4 4 4 4 5 5 5
9 9 9 9 9 9 9 9 9 9 9 9 8 7 7 7 7 7 7 7 7 7 7 7 7 7 6 6 6 6 6 6 6 6 6 6 6 6 6 6 6 6 6 6 6 6 6 6 6 6 6 6 6 5 5 5 5 5 5 5 5 5 5 5 5 5 5 5 4 4 4 4 4 4 4 4 4 4 4 4 4 4 4 5 5
9 8 8 8 8 9 9 9 8 8 8 8 7 7 7 7 7 7 7 7 7 7 7 7 6 6 6 6 6 6 6 6 6 6 6 6 6 6 6 6 6 6 5 5 5 6 6 6 6 6 6 6 5 5 5 5 5 5 5 5 5 5 5 5 5 5 5 5 4 4 5 4 4 4 4 4 4 4 4 4 4 4 4 4 5
8 7 8 8 8 8 8 8 8 7 7 7 6 6 6 6 6 6 6 6 6 6 6 6 6 6 6 6 6 6 6 6 6 6 6 6 6 6 6 6 6 6 6 5 6 6 6 6 6 6 6 5 5 5 5 5 5 5 5 5 5 5 5 5 5 5 5 5 5 5 5 5 4 4 4 4 4 4 4 4 4 4 4 4 4
8 8 8 8 8 8 8 7 7 7 7 6 6 6 6 6 6 6 6 6 6 6 6 6 6 6 6 6 6 6 6 6 6 6 6 6 6 6 6 6 6 6 6 6 6 6 6 6 6 6 6 5 5 5 5 5 5 5 5 5 5 5 5 5 5 5 5 5 5 5 5 5 4 4 4 4 4 4 4 4 4 4 4 4 4
7 7 7 7 7 6 7 7 7 7 6 6 6 6 6 6 6 6 6 6 6 5 5 5 5 6 6 6 6 6 6 6 6 6 6 6 6 6 6 6 6 6 6 6 6 6 6 6 6 6 6 6 5 5 5 5 5 5 5 5 5 5 5 5 5 5 5 5 5 5 5 5 5 4 4 4 4 4 4 4 4 4 4 4 4
6 6 6 5 6 6 7 7 7 7 6 6 6 6 6 5 5 5 6 5 5 5 5 5 5 5 5 5 6 6 6 6 6 6 6 5 6 6 6 6 6 6 6 6 6 6 6 6 6 6 6 6 6 5 5 5 5 5 5 5 5 5 5 5 5 5 5 5 5 5 5 5 5 5 4 4 4 4 4 4 4 4 4 4 4
6 6 6 6 7 7 7 7 7 6 6 6 5 6 5 5 5 5 6 5 5 5 5 5 5 5 5 5 6 6 6 6 6 6 6 6 6 6 6 6 6 6 6 6 6 6 6 6 6 6 6 6 6 5 5 5 5 5 5 5 5 5 5 5 5 5 5 5 5 5 5 5 4 4 5 4 4 4 4 4 4 4 4 4 4
7 7 7 7 8 8 7 7 6 6 6 6 5 5 5 5 5 5 6 6 5 5 5 6 6 6 6 6 6 6 5 6 6 6 6 6 6 5 5 6 6 6 6 6 6 6 6 6 6 6 6 6 6 5 5 5 5 5 5 5 5 5 5 5 5 5 5 5 5 5 5 5 4 4 4 4 4 4 4 4 4 4 4 4 4
7 7 7 7 7 7 7 7 6 6 6 6 5 5 5 5 5 5 5 5 5 6 6 6 6 6 6 6 5 5 5 6 6 6 6 6 6 6 6 6 6 6 6 6 6 6 6 6 6 6 6 6 5 5 5 5 5 5 5 5 5 5 5 5 5 5 4 5 5 5 5 5 5 4 4 4 4 4 4 5 4 4 4 4 4
7 7 7 7 7 7 6 6 6 6 6 6 5 5 5 5 5 5 5 5 5 5 5 5 5 5 5 5 5 5 6 6 6 6 6 6 6 6 6 6 6 6 6 6 6 6 6 6 6 6 6 6 5 5 5 5 5 5 5 5 5 5 5 5 5 4 4 4 5 5 5 5 5 4 4 4 4 4 4 4 4 4 4 4 4
7 7 7 7 7 7 6 6 6 6 6 6 5 5 5 5 5 5 4 4 5 5 5 5 5 5 5 5 6 6 6 6 6 6 6 6 6 6 6 6 6 6 6 6 6 6 6 6 6 6 6 6 6 5 5 5 5 5 5 5 5 5 5 5 5 5 5 5 4 5 5 4 4 4 4 4 4 4 4 4 4 4 4 4 4
6 6 7 6 7 7 7 6 6 6 6 6 5 5 5 5 5 5 5 5 5 5 5 5 5 5 5 6 6 6 6 6 6 6 6 6 6 6 6 6 6 6 6 6 6 6 6 6 6 6 6 6 6 6 5 5 5 5 5 5 5 5 5 5 5 5 5 5 5 4 5 4 4 4 4 4 4 4 4 4 4 4 4 4 4
6 6 6 6 6 6 6 6 6 6 6 5 5 5 5 5 5 5 5 5 5 5 5 6 6 5 6 6 6 6 6 6 6 6 6 6 6 6 6 6 6 6 6 6 6 6 6 6 6 6 6 6 6 6 5 5 5 5 5 5 5 5 5 5 5 5 5 5 5 5 5 5 5 4 4 4 4 4 4 4 4 4 4 4 4
7 6 6 6 6 6 6 6 6 6 6 5 5 5 5 5 5 5 5 5 5 5 5 6 6 6 6 6 6 6 6 6 6 6 6 6 6 6 6 6 6 6 6 6 6 6 6 6 6 6 6 6 5 5 5 5 5 5 5 5 5 5 5 5 5 5 5 5 5 5 5 5 5 4 4 4 4 4 4 4 4 4 4 4 4
7 7 6 6 6 6 6 6 6 6 5 5 5 5 5 5 5 5 5 5 5 5 5 5 6 6 6 6 6 6 6 6 6 6 6 6 6 6 6 6 6 6 6 6 6 5 5 5 5 5 5 5 5 5 5 5 5 5 5 5 5 5 5 5 5 5 5 5 4 5 5 5 5 5 4 4 4 4 4 4 4 4 4 4 4
7 7 7 6 6 6 6 6 6 5 5 5 5 5 5 5 5 5 5 5 5 5 5 5 6 6 6 6 6 6 6 6 6 6 6 6 6 6 6 6 6 6 6 5 5 5 5 5 5 5 5 5 5 5 5 5 5 5 5 5 5 5 5 5 4 5 5 5 5 4 4 5 5 5 5 5 5 4 4 4 4 4 4 4 4
7 7 6 6 6 6 6 6 5 5 5 5 5 5 5 5 5 5 5 5 5 5 5 5 6 6 6 6 6 6 6 6 6 6 6 6 6 6 6 6 6 6 5 5 5 5 5 5 5 5 5 5 5 5 5 5 5 5 5 5 5 5 5 4 4 4 5 5 5 5 4 4 5 5 5 5 5 5 4 4 4 4 4 4 4
6 6 6 6 6 6 6 6 5 5 5 5 5 5 5 5 4 4 5 5 5 5 5 6 6 6 6 6 6 6 6 6 6 6 6 6 6 6 6 5 5 5 5 5 5 5 5 5 5 5 5 5 5 5 5 5 5 5 5 5 5 5 5 4 4 4 4 4 5 5 5 4 4 4 4 4 4 5 4 4 4 4 4 4 4
6 6 6 6 6 6 6 5 5 5 5 5 5 5 5 5 4 4 5 5 5 5 6 6 6 6 6 6 6 6 6 6 6 6 6 5 5 5 5 5 5 5 5 5 5 5 5 5 5 5 5 5 5 5 5 5 5 5 5 5 5 5 5 5 4 4 4 4 4 5 5 4 4 4 4 4 4 4 4 4 4 4 4 4 4
6 6 6 6 6 6 5 5 5 5 5 5 5 5 5 5 5 5 5 5 5 6 6 6 6 6 6 6 6 6 6 6 6 6 5 5 5 5 5 5 5 5 5 5 5 5 5 5 5 5 5 5 5 5 5 5 5 5 5 5 5 5 5 5 5 5 4 4 4 5 5 4 4 4 4 4 4 4 4 4 4 4 4 4 4
Height
3168 3169 3169 3170 3172 3172 3173 3173 3173 3173 3173 3173 3172 3172 3172 3172 3172 3172 3172 3172 3172 3171 3171 3170 3170 3170 3170 3170 3170 3170 3170 3169 3169 3169 3168 3168 3167 3166 3166 3166 3165 3165 3165 3164 3164 3163 3163 3163 3163 3162 3162 3162 3161 3161 3161 3161 3161 3161 3161 3161 3161 3161 3161 3161 3161 3161 3161 3161 3161 3161 3161 3161 3161 3161 3161 3161 3161 3161 3160 3160 3160 3160 3160 3159 3159
3168 3168 3169 3170 3171 3172 3172 3173 3173 3173 3173 3173 3173 3172 3172 3172 3172 3172 3172 3172 3172 3172 3171 3171 3171 3171 3171 3171 3171 3170 3170 3170 3170 3169 3169 3169 3168 3168 3167 3167 3166 3166 3166 3165 3165 3164 3164 3164 3163 3163 3163 3163 3162 3162 3162 3162 3162 3162 3161 3161 3161 3161 3161 3162 3162 3162 3162 3162 3162 3162 3162 3162 3162 3162 3162 3162 3162 3161 3161 3161 3161 3160 3160 3160 3160
3167 3168 3169 3169 3170 3171 3172 3172 3172 3173 3173 3173 3173 3172 3172 3172 3172 3172 3172 3172 3172 3172 3172 3172 3172 3172 3172 3171 3171 3171 3171 3171 3170 3170 3170 3170 3169 3169 3168 3168 3167 3167 3167 3166 3166 3165 3165 3165 3164 3164 3164 3164 3163 3163 3163 3163 3163 3163 3162 3162 3162 3162 3162 3162 3162 3162 3162 3162 3162 3162 3162 3163 3163 3163 3163 3163 3162 3162 3162 3162 3161 3161 3161 3161 3161
3167 3168 3169 3169 3170 3171 3171 3172 3172 3172 3173 3173 3173 3172 3172 3172 3172 3173 3173 3173 3173 3173 3173 3173 3172 3172 3172 3172 3172 3172 3172 3171 3171 3171 3171 3170 3170 3170 3169 3169 3168 3168 3167 3167 3167 3166 3166 3165 3165 3165 3165 3165 3165 3165 3164 3164 3164 3164 3164 3164 3163 3163 3163 3163 3163 3163 3163 3163 3163 3163 3163 3163 3163 3163 3163 3163 3163 3163 3162 3162 3162 3162 3162 3162 3162
3166 3167 3168 3169 3169 3170 3171 3171 3172 3172 3172 3173 3173 3172 3172 3172 3172 3173 3173 3173 3173 3173 3173 3173 3173 3173 3173 3173 3173 3172 3172 3172 3172 3172 3171 3171 3171 3171 3171 3170 3170 3169 3168 3168 3168 3167 3167 3166 3166 3166 3166 3166 3166 3166 3165 3165 3165 3165 3165 3165 3165 3164 3164 3164 3164 3164 3163 3163 3164 3163 3163 3164 3164 3164 3164 3164 3164 3164 3163 3163 3163 3163 3163 3163 3163
3166 3167 3168 3169 3169 3169 3170 3170 3171 3172 3172 3172 3172 3172 3172 3172 3172 3172 3173 3173 3173 3173 3173 3173 3173 3173 3173 3173 3173 3173 3173 3173 3173 3172 3172 3172 3172 3172 3171 3171 3171 3170 3170 3169 3169 3168 3168 3167 3167 3167 3167 3167 3167 3167 3167 3166 3166 3166 3166 3166 3166 3165 3165 3165 3165 3165 3164 3164 3164 3163 3163 3165 3165 3165 3165 3165 3165 3165 3165 3164 3164 3164 3164 3164 3164
3165 3166 3167 3168 3169 3169 3170 3170 3171 3171 3172 3172 3172 3172 3172 3172 3172 3172 3172 3173 3173 3173 3173 3174 3174 3174 3174 3174 3174 3174 3174 3174 3173 3173 3173 3173 3172 3172 3172 3172 3172 3171 3171 3170 3170 3169 3169 3169 3168 3168 3168 3168 3168 3168 3168 3168 3168 3167 3167 3167 3167 3167 3166 3166 3166 3166 3165 3165 3164 3164 3165 3166 3166 3166 3166 3166 3167 3166 3166 3166 3166 3165 3165 3165 3165
3164 3165 3166 3167 3168 3169 3169 3169 3170 3170 3171 3171 3172 3172 3172 3172 3172 3172 3172 3173 3173 3173 3173 3174 3174 3174 3174 3174 3174 3174 3174 3174 3174 3174 3174 3173 3173 3173 3173 3173 3173 3172 3172 3172 3171 3171 3170 3170 3169 3169 3169 3169 3169 3169 3169 3169 3169 3169 3169 3169 3168 3168 3168 3168 3168 3167 3166 3165 3164 3165 3167 3167 3167 3167 3167 3167 3167 3167 3168 3168 3167 3167 3167 3167 3166
3163 3164 3165 3166 3167 3168 3169 3169 3169 3170 3170 3171 3171 3171 3171 3171 3172 3172 3172 3173 3173 3173 3174 3174 3174 3174 3174 3174 3174 3175 3175 3175 3174 3174 3174 3174 3174 3174 3173 3173 3173 3173 3173 3173 3172 3172 3172 3171 3171 3170 3170 3170 3170 3170 3170 3170 3170 3170 3170 3170 3170 3169 3169 3169 3169 3168 3167 3166 3167 3168 3168 3168 3168 3168 3168 3168 3168 3168 3168 3169 3168 3168 3168 3168 3168
3161 3163 3164 3165 3166 3167 3168 3168 3169 3169 3170 3170 3170 3171 3171 3171 3171 3172 3172 3172 3173 3173 3174 3174 3174 3174 3174 3175 3175 3175 3175 3175 3175 3175 3174 3174 3174 3174 3174 3174 3174 3174 3174 3174 3173 3173 3173 3173 3172 3172 3171 3171 3171 3171 3171 3171 3171 3171 3171 3171 3171 3170 3170 3170 3170 3169 3168 3168 3169 3170 3169 3169 3169 3169 3169 3169 3169 3169 3169 3169 3169 3169 3169 3169 3168
3161 3162 3163 3164 3165 3166 3167 3167 3168 3168 3169 3169 3170 3170 3170 3170 3171 3171 3171 3172 3173 3173 3173 3174 3174 3174 3174 3175 3175 3175 3175 3175 3175 3175 3175 3175 3175 3175 3175 3175 3174 3174 3174 3174 3174 3174 3174 3174 3174 3173 3173 3172 3172 3172 3172 3172 3172 3172 3172 3172 3172 3172 3172 3171 3171 3169 3169 3170 3171 3171 3171 3171 3170 3170 3170 3170 3170 3170 3170 3170 3170 3169 3169 3169 3169
3160 3160 3161 3163 3164 3165 3166 3166 3167 3168 3168 3169 3169 3169 3170 3170 3170 3170 3171 3172 3172 3173 3173 3173 3174 3174 3174 3175 3175 3175 3175 3175 3175 3175 3175 3175 3175 3175 3175 3175 3175 3175 3175 3175 3175 3175 3175 3175 3175 3174 3174 3173 3173 3173 3173 3173 3173 3173 3173 3173 3173 3173 3173 3172 3172 3170 3170 3172 3172 3172 3172 3172 3172 3172 3171 3171 3171 3171 3170 3170 3170 3170 3170 3169 3169
3159 3159 3160 3161 3162 3164 3164 3165 3166 3167 3168 3168 3169 3169 3169 3169 3170 3170 3171 3171 3172 3172 3173 3173 3173 3174 3174 3174 3175 3175 3175 3175 3175 3175 3175 3175 3175 3175 3175 3175 3175 3175 3175 3176 3176 3176 3176 3175 3175 3175 3175 3174 3174 3174 3174 3173 3174 3174 3174 3174 3174 3174 3174 3174 3173 3171 3171 3173 3173 3173 3173 3173 3173 3173 3173 3172 3172 3172 3171 3171 3171 3170 3170 3170 3170
3158 3158 3159 3160 3161 3162 3163 3164 3165 3166 3167 3167 3168 3168 3168 3168 3169 3169 3170 3170 3171 3172 3172 3173 3173 3173 3174 3174 3174 3175 3175 3175 3175 3175 3175 3175 3175 3175 3175 3176 3176 3176 3176 3176 3176 3176 3176 3176 3176 3176 3176 3176 3175 3175 3175 3174 3174 3175 3175 3175 3175 3175 3175 3175 3174 3172 3173 3173 3173 3174 3173 3174 3174 3173 3173 3173 3173 3173 3172 3172 3171 3171 3170 3170 3170
3156 3157 3158 3158 3160 3161 3162 3163 3164 3165 3166 3166 3167 3167 3167 3167 3168 3169 3169 3170 3170 3171 3171 3172 3172 3173 3173 3174 3174 3175 3175 3175 3175 3175 3175 3175 3175 3175 3175 3176 3176 3176 3176 3176 3177 3177 3177 3177 3177 3177 3177 3177 3176 3176 3176 3176 3175 3175 3175 3176 3175 3175 3175 3175 3174 3173 3173 3174 3174 3174 3174 3174 3173 3173 3173 3173 3173 3173 3173 3172 3172 3171 3170 3170 3169
3155 3155 3157 3157 3159 3160 3161 3162 3163 3164 3165 3165 3166 3166 3166 3167 3167 3168 3168 3169 3170 3170 3171 3171 3172 3172 3173 3174 3174 3174 3175 3175 3175 3175 3175 3176 3176 3175 3175 3176 3176 3176 3176 3177 3177 3177 3177 3177 3178 3178 3178 3177 3177 3177 3177 3177 3176 3176 3176 3176 3176 3176 3176 3175 3175 3174 3174 3174 3174 3174 3174 3174 3173 3173 3173 3173 3173 3172 3172 3172 3172 3171 3170 3170 3169
3154 3154 3155 3156 3158 3159 3160 3161 3162 3163 3164 3164 3165 3165 3165 3166 3166 3167 3168 3168 3169 3170 3170 3171 3171 3172 3172 3173 3174 3174 3175 3175 3175 3175 3175 3176 3176 3176 3176 3176 3176 3176 3177 3177 3177 3177 3177 3177 3178 3178 3178 3178 3178 3178 3178 3177 3177 3177 3177 3177 3176 3176 3176 3176 3175 3175 3174 3174 3174 3174 3174 3174 3173 3173 3173 3173 3172 3172 3172 3171 3171 3170 3170 3169 3169
3152 3152 3154 3155 3156 3158 3159 3160 3161 3162 3163 3163 3164 3164 3165 3165 3166 3166 3167 3168 3168 3169 3170 3170 3171 3171 3172 3173 3173 3174 3174 3175 3175 3175 3175 3176 3176 3176 3176 3176 3176 3176 3176 3177 3177 3177 3177 3177 3177 3178 3178 3178 3178 3178 3178 3178 3178 3178 3177 3177 3177 3176 3176 3176 3176 3175 3174 3174 3174 3174 3174 3173 3173 3173 3173 3172 3172 3171 3171 3171 3170 3170 3169 3168 3168
3151 3152 3153 3154 3156 3157 3158 3159 3160 3161 3162 3163 3163 3163 3164 3164 3165 3165 3166 3167 3168 3169 3170 3170 3170 3171 3171 3172 3173 3173 3174 3174 3175 3175 3175 3176 3176 3176 3176 3176 3176 3176 3176 3177 3177 3177 3177 3177 3177 3177 3177 3178 3178 3178 3178 3178 3178 3178 3178 3177 3177 3177 3176 3176 3176 3175 3174 3174 3174 3174 3174 3173 3173 3172 3172 3172 3171 3171 3170 3170 3169 3169 3168 3167 3167
3149 3151 3152 3153 3155 3156 3157 3159 3159 3161 3161 3161 3162 3162 3163 3163 3164 3165 3166 3166 3167 3168 3169 3169 3169 3170 3171 3171 3172 3173 3173 3174 3175 3175 3175 3176 3176 3176 3176 3176 3176 3176 3176 3176 3176 3177 3177 3177 3177 3177 3177 3177 3177 3177 3178 3178 3178 3177 3177 3177 3177 3177 3176 3176 3175 3174 3174 3174 3174 3173 3173 3173 3172 3172 3171 3171 3170 3170 3169 3169 3168 3168 3167 3167 3166
3148 3149 3150 3152 3154 3155 3156 3157 3158 3159 3160 3160 3161 3162 3162 3162 3163 3164 3165 3166 3166 3167 3168 3168 3169 3169 3170 3170 3171 3172 3173 3174 3174 3175 3175 3176 3176 3176 3176 3177 3176 3176 3176 3176 3176 3176 3176 3176 3176 3176 3176 3176 3176 3177 3177 3177 3177 3177 3177 3177 3176 3176 3176 3175 3175 3174 3173 3173 3174 3173 3172 3172 3171 3171 3170 3170 3169 3169 3168 3168 3167 3166 3166 3165 3165
3147 3148 3149 3151 3153 3153 3155 3156 3157 3158 3158 3159 3160 3161 3161 3162 3162 3163 3164 3165 3166 3166 3167 3168 3168 3168 3169 3170 3171 3172 3173 3173 3174 3174 3175 3175 3176 3176 3176 3176 3176 3176 3176 3176 3176 3176 3176 3176 3176 3175 3176 3176 3176 3176 3176 3176 3176 3176 3176 3176 3176 3175 3175 3175 3174 3174 3172 3171 3173 3172 3172 3171 3171 3170 3170 3169 3169 3168 3167 3167 3166 3165 3165 3164 3164
3146 3147 3148 3150 3151 3152 3153 3155 3156 3157 3158 3159 3159 3160 3161 3161 3162 3163 3164 3164 3165 3166 3167 3167 3167 3168 3169 3169 3170 3171 3172 3173 3174 3174 3175 3175 3175 3176 3176 3176 3176 3176 3176 3176 3175 3175 3175 3175 3175 3175 3175 3175 3175 3175 3175 3175 3175 3175 3175 3175 3174 3174 3174 3174 3173 3173 3171 3170 3171 3171 3170 3170 3170 3169 3169 3168 3168 3167 3166 3166 3165 3164 3164 3163 3162
3145 3146 3147 3149 3150 3151 3152 3153 3155 3156 3157 3158 3158 3159 3160 3161 3161 3162 3163 3163 3164 3165 3166 3167 3167 3168 3169 3169 3170 3170 3171 3172 3173 3174 3174 3175 3175 3175 3176 3176 3176 3176 3176 3175 3175 3175 3175 3174 3174 3174 3174 3174 3174 3174 3174 3174 3174 3174 3174 3174 3173 3173 3173 3173 3172 3172 3170 3169 3170 3169 3169 3169 3168 3168 3168 3167 3166 3166 3165 3165 3164 3163 3163 3162 3161
3144 3145 3146 3147 3149 3150 3151 3152 3153 3155 3156 3157 3158 3158 3159 3160 3161 3161 3162 3163 3164 3165 3166 3167 3167 3168 3169 3169 3170 3170 3171 3171 3172 3173 3174 3174 3175 3175 3175 3175 3175 3175 3175 3175 3174 3174 3174 3174 3173 3173 3173 3173 3173 3173 3172 3172 3172 3173 3173 3173 3172 3172 3171 3171 3171 3171 3169 3167 3168 3168 3167 3167 3167 3166 3166 3166 3165 3165 3164 3163 3163 3162 3162 3161 3160
3143 3144 3145 3146 3148 3149 3150 3151 3152 3153 3155 3156 3157 3158 3158 3159 3160 3161 3162 3163 3163 3164 3165 3166 3167 3168 3169 3169 3169 3170 3170 3171 3172 3172 3173 3174 3174 3174 3174 3174 3174 3174 3174 3173 3173 3173 3173 3173 3173 3173 3172 3172 3172 3172 3172 3171 3170 3170 3171 3171 3171 3170 3170 3170 3169 3169 3168 3166 3166 3166 3166 3166 3165 3165 3164 3164 3164 3163 3163 3162 3162 3161 3160 3160 3159
3141 3143 3144 3146 3147 3148 3149 3150 3151 3152 3154 3155 3156 3157 3157 3159 3159 3160 3161 3162 3163 3164 3165 3166 3167 3168 3168 3169 3169 3170 3170 3171 3171 3172 3172 3173 3173 3173 3174 3173 3173 3173 3172 3172 3172 3172 3172 3172 3172 3172 3171 3171 3171 3171 3171 3171 3170 3169 3169 3169 3169 3169 3169 3168 3168 3168 3166 3164 3165 3165 3164 3164 3164 3163 3163 3162 3162 3161 3161 3160 3160 3160 3159 3158 3158
3140 3142 3143 3145 3146 3147 3148 3149 3150 3152 3153 3154 3155 3156 3157 3158 3159 3160 3161 3162 3163 3164 3165 3166 3167 3167 3168 3168 3169 3169 3170 3171 3170 3171 3173 3172 3172 3172 3172 3172 3172 3172 3171 3171 3170 3170 3170 3170 3170 3170 3170 3170 3170 3169 3169 3169 3169 3169 3168 3167 3167 3167 3167 3167 3167 3166 3165 3163 3163 3164 3163 3163 3162 3161 3161 3160 3160 3160 3159 3159 3158 3158 3157 3157 3156
3138 3140 3142 3143 3144 3146 3147 3149 3150 3151 3152 3153 3154 3155 3156 3158 3159 3160 3161 3162 3163 3164 3165 3166 3166 3167 3167 3168 3168 3169 3170 3170 3170 3172 3173 3172 3171 3171 3171 3171 3171 3171 3171 3170 3170 3170 3169 3169 3169 3169 3169 3169 3169 3168 3168 3168 3168 3167 3167 3166 3166 3165 3164 3165 3165 3165 3163 3161 3161 3161 3161 3161 3160 3159 3159 3158 3158 3157 3157 3157 3156 3156 3155 3155 3155
3137 3139 3140 3142 3144 3145 3147 3148 3150 3150 3151 3153 3154 3155 3156 3158 3158 3160 3161 3161 3163 3164 3164 3165 3166 3166 3167 3167 3168 3169 3170 3170 3170 3171 3172 3171 3170 3170 3170 3171 3170 3170 3170 3170 3170 3169 3169 3169 3168 3168 3168 3168 3167 3167 3167 3167 3167 3167 3166 3165 3165 3164 3163 3163 3163 3163 3162 3160 3159 3159 3159 3158 3158 3157 3156 3156 3155 3155 3155 3155 3155 3154 3154 3153 3153
3135 3137 3139 3141 3142 3144 3146 3148 3149 3150 3152 3153 3154 3156 3157 3157 3158 3159 3160 3161 3163 3164 3164 3165 3166 3166 3166 3167 3168 3168 3169 3169 3169 3170 3171 3170 3169 3169 3170 3170 3170 3170 3170 3170 3169 3169 3168 3168 3167 3167 3167 3166 3166 3166 3166 3165 3165 3166 3165 3164 3164 3163 3162 3161 3161 3161 3161 3159 3158 3157 3157 3156 3156 3155 3154 3153 3153 3153 3152 3152 3152 3153 3152 3152 3152
3134 3136 3138 3140 3141 3143 3145 3147 3149 3150 3152 3154 3155 3156 3156 3157 3158 3159 3160 3162 3163 3163 3164 3165 3165 3166 3166 3167 3168 3168 3168 3169 3169 3170 3170 3169 3169 3169 3170 3170 3170 3169 3169 3169 3168 3168 3167 3167 3166 3166 3166 3165 3165 3165 3164 3164 3164 3164 3164 3164 3163 3162 3161 3159 3159 3159 3158 3158 3157 3156 3155 3154 3153 3153 3152 3152 3151 3151 3150 3150 3150 3151 3151 3150 3150
3133 3135 3137 3139 3141 3143 3145 3147 3149 3150 3152 3154 3155 3155 3156 3157 3158 3159 3161 3162 3163 3163 3164 3165 3165 3166 3166 3167 3167 3167 3167 3168 3169 3169 3169 3169 3169 3170 3170 3170 3169 3169 3168 3168 3167 3166 3166 3165 3165 3165 3165 3164 3164 3164 3163 3163 3162 3162 3162 3162 3161 3161 3160 3158 3157 3156 3156 3156 3155 3154 3153 3152 3151 3151 3150 3150 3149 3149 3148 3148 3148 3148 3149 3149 3148
3133 3134 3136 3139 3141 3143 3145 3147 3149 3150 3152 3153 3154 3155 3156 3157 3158 3160 3161 3162 3163 3163 3164 3164 3165 3166 3166 3166 3167 3167 3167 3168 3168 3168 3169 3169 3169 3170 3170 3169 3169 3168 3168 3167 3166 3165 3165 3164 3164 3164 3163 3163 3162 3162 3162 3161 3161 3160 3160 3160 3160 3159 3159 3157 3156 3155 3154 3153 3153 3151 3151 3151 3149 3149 3148 3148 3147 3147 3147 3146 3146 3147 3147 3147 3146
3132 3134 3136 3138 3140 3142 3145 3147 3149 3150 3151 3152 3154 3155 3156 3157 3159 3161 3161 3162 3163 3163 3164 3165 3165 3166 3166 3166 3167 3167 3167 3167 3168 3168 3168 3169 3169 3169 3169 3169 3168 3168 3167 3166 3165 3165 3164 3164 3163 3163 3162 3162 3161 3160 3160 3160 3159 3159 3158 3158 3158 3157 3157 3156 3155 3154 3152 3151 3150 3149 3148 3148 3147 3147 3146 3145 3145 3145 3145 3144 3144 3145 3145 3145 3145
3131 3133 3136 3137 3140 3143 3145 3147 3149 3150 3151 3152 3154 3155 3156 3158 3159 3160 3161 3162 3163 3163 3164 3165 3165 3166 3166 3167 3167 3167 3168 3168 3168 3168 3168 3169 3168 3168 3168 3168 3167 3167 3166 3165 3165 3164 3163 3163 3162 3161 3161 3160 3159 3159 3158 3158 3157 3157 3157 3156 3156 3156 3155 3154 3153 3152 3151 3149 3148 3147 3146 3145 3145 3145 3144 3143 3143 3143 3142 3142 3142 3142 3143 3143 3143
3132 3133 3136 3139 3142 3145 3147 3148 3149 3150 3150 3152 3154 3156 3157 3157 3158 3160 3161 3162 3162 3163 3164 3164 3165 3165 3165 3166 3167 3167 3167 3168 3168 3168 3168 3168 3168 3168 3167 3167 3166 3165 3165 3164 3163 3162 3162 3161 3161 3160 3159 3158 3158 3157 3156 3156 3156 3155 3155 3154 3154 3153 3153 3152 3151 3150 3149 3148 3146 3145 3144 3143 3142 3142 3142 3142 3141 3141 3140 3140 3140 3140 3141 3141 3141
3136 3136 3140 3144 3146 3147 3148 3148 3148 3149 3150 3152 3154 3156 3156 3156 3158 3161 3161 3162 3162 3162 3162 3164 3165 3165 3164 3166 3167 3167 3167 3168 3168 3167 3168 3168 3167 3167 3166 3166 3165 3164 3163 3163 3162 3161 3161 3160 3159 3159 3157 3157 3156 3155 3155 3154 3153 3153 3153 3152 3151 3151 3151 3150 3149 3148 3147 3146 3145 3144 3143 3141 3140 3140 3140 3140 3140 3139 3138 3138 3138 3138 3138 3138 3138
3139 3140 3143 3145 3145 3145 3146 3147 3149 3149 3150 3152 3155 3156 3156 3157 3158 3161 3161 3161 3162 3163 3164 3165 3166 3166 3167 3167 3167 3167 3167 3167 3167 3167 3167 3167 3166 3166 3165 3164 3164 3163 3162 3161 3161 3160 3160 3159 3158 3158 3157 3156 3155 3154 3154 3153 3152 3151 3151 3150 3150 3149 3149 3148 3147 3146 3145 3144 3143 3142 3141 3140 3139 3138 3138 3138 3138 3137 3136 3136 3136 3136 3136 3136 3136
3141 3142 3144 3144 3143 3144 3146 3147 3148 3148 3150 3153 3154 3156 3157 3157 3158 3160 3160 3161 3163 3165 3166 3166 3167 3168 3167 3165 3165 3166 3166 3167 3167 3166 3166 3166 3165 3165 3164 3163 3163 3162 3161 3161 3160 3159 3158 3158 3157 3157 3156 3155 3154 3153 3152 3152 3151 3150 3150 3149 3149 3148 3147 3146 3145 3144 3143 3143 3142 3140 3139 3138 3137 3137 3135 3134 3134 3135 3136 3134 3133 3133 3133 3134 3134
3140 3142 3143 3143 3143 3145 3146 3147 3147 3148 3152 3153 3153 3154 3156 3157 3158 3159 3159 3161 3163 3164 3164 3165 3166 3166 3163 3162 3163 3164 3165 3166 3166 3166 3165 3165 3164 3164 3163 3163 3162 3161 3161 3160 3159 3158 3157 3157 3156 3155 3155 3154 3153 3153 3152 3151 3150 3149 3149 3148 3147 3146 3146 3145 3144 3143 3142 3142 3141 3139 3138 3137 3136 3135 3133 3132 3131 3132 3134 3133 3131 3131 3131 3130 3131
3139 3141 3143 3143 3144 3145 3146 3146 3147 3149 3153 3153 3153 3155 3156 3157 3158 3158 3159 3160 3162 3163 3163 3164 3166 3165 3162 3162 3164 3165 3165 3166 3165 3165 3165 3164 3164 3163 3163 3162 3162 3161 3160 3159 3158 3157 3157 3156 3155 3154 3154 3153 3153 3152 3151 3150 3149 3148 3147 3147 3146 3145 3144 3143 3143 3142 3141 3140 3139 3138 3137 3136 3135 3133 3132 3131 3130 3129 3130 3130 3128 3127 3127 3126 3126
3138 3140 3142 3142 3143 3144 3145 3146 3147 3148 3150 3151 3153 3157 3157 3157 3157 3159 3159 3160 3161 3163 3164 3165 3166 3165 3164 3165 3165 3165 3166 3165 3165 3165 3164 3164 3163 3163 3162 3162 3161 3160 3159 3159 3157 3157 3156 3155 3155 3154 3153 3152 3152 3151 3150 3149 3148 3147 3146 3145 3144 3144 3143 3142 3141 3140 3139 3138 3137 3136 3136 3135 3134 3132 3131 3130 3129 3128 3128 3127 3125 3125 3124 3123 3123
3137 3139 3141 3141 3141 3143 3145 3146 3147 3146 3147 3150 3154 3156 3156 3156 3158 3159 3160 3160 3162 3164 3165 3167 3168 3166 3166 3166 3165 3165 3165 3165 3165 3164 3164 3163 3163 3162 3161 3161 3160 3159 3159 3158 3157 3156 3155 3155 3154 3153 3153 3152 3151 3150 3149 3148 3147 3146 3145 3144 3143 3142 3141 3140 3140 3139 3138 3137 3136 3135 3134 3133 3132 3131 3130 3129 3128 3127 3126 3125 3124 3123 3122 3121 3121
3136 3138 3139 3139 3140 3142 3143 3145 3145 3145 3146 3149 3152 3154 3155 3157 3158 3158 3160 3162 3163 3164 3167 3168 3168 3167 3167 3166 3165 3165 3164 3164 3164 3163 3163 3162 3162 3161 3161 3160 3159 3159 3158 3157 3156 3155 3154 3154 3153 3153 3152 3151 3150 3149 3148 3147 3146 3145 3143 3142 3141 3140 3139 3138 3137 3138 3137 3135 3134 3134 3133 3131 3130 3130 3129 3128 3127 3125 3124 3123 3122 3121 3120 3120 3120
3135 3136 3138 3138 3139 3140 3141 3142 3143 3144 3146 3149 3151 3152 3155 3157 3158 3158 3160 3162 3164 3165 3166 3166 3166 3167 3166 3166 3165 3164 3164 3163 3163 3163 3162 3162 3161 3161 3160 3159 3159 3158 3157 3156 3156 3155 3154 3153 3153 3152 3151 3150 3149 3149 3148 3147 3146 3145 3143 3142 3140 3139 3138 3137 3135 3135 3135 3134 3133 3131 3131 3130 3129 3128 3128 3127 3126 3125 3123 3122 3121 3120 3119 3119 3119
3134 3135 3136 3138 3138 3139 3140 3140 3142 3144 3146 3149 3150 3152 3154 3156 3157 3158 3160 3162 3164 3164 3164 3165 3166 3166 3166 3165 3164 3163 3163 3163 3162 3162 3162 3161 3161 3160 3159 3159 3158 3157 3157 3156 3155 3154 3153 3153 3152 3151 3150 3149 3148 3148 3147 3146 3145 3144 3142 3141 3140 3138 3137 3135 3134 3132 3131 3132 3132 3130 3128 3128 3127 3126 3125 3125 3124 3123 3122 3121 3120 3119 3118 3117 3116
3132 3133 3135 3136 3137 3138 3139 3140 3141 3143 3146 3148 3149 3151 3153 3155 3156 3158 3160 3163 3163 3162 3163 3164 3165 3165 3164 3164 3163 3162 3162 3162 3161 3161 3161 3160 3160 3159 3159 3158 3157 3157 3156 3155 3154 3153 3153 3152 3151 3150 3149 3148 3147 3146 3146 3145 3144 3143 3142 3140 3139 3137 3136 3134 3133 3130 3128 3128 3129 3129 3127 3125 3125 3124 3123 3122 3122 3121 3120 3119 3118 3117 3116 3115 3114
3131 3132 3133 3135 3136 3137 3138 3139 3140 3142 3144 3147 3148 3150 3151 3153 3156 3158 3161 3162 3161 3161 3163 3163 3164 3164 3163 3162 3162 3161 3161 3161 3160 3160 3160 3160 3159 3158 3158 3157 3157 3156 3155 3155 3154 3153 3152 3151 3150 3149 3148 3147 3146 3145 3144 3143 3142 3141 3140 3139 3137 3136 3135 3133 3131 3129 3127 3125 3124 3125 3124 3123 3122 3122 3121 3120 3119 3118 3118 3117 3116 3115 3114 3112 3111
3130 3131 3132 3133 3135 3136 3137 3137 3138 3140 3143 3145 3147 3148 3150 3152 3155 3157 3159 3159 3160 3160 3161 3162 3163 3162 3162 3161 3161 3160 3160 3160 3160 3160 3159 3159 3158 3158 3157 3156 3156 3155 3154 3153 3152 3151 3150 3150 3149 3148 3147 3146 3145 3144 3143 3142 3140 3139 3137 3136 3135 3134 3133 3132 3130 3128 3126 3123 3121 3121 3121 3119 3118 3118 3118 3117 3116 3116 3115 3114 3113 3113 3112 3110 3109
3129 3130 3131 3132 3133 3134 3135 3136 3137 3139 3141 3143 3145 3147 3149 3152 3154 3155 3156 3157 3158 3159 3160 3161 3161 3161 3160 3160 3160 3159 3159 3159 3159 3159 3159 3158 3157 3156 3156 3155 3154 3153 3153 3152 3151 3150 3149 3148 3147 3146 3145 3145 3144 3142 3141 3140 3139 3137 3136 3134 3132 3131 3130 3128 3127 3125 3123 3121 3119 3118 3117 3116 3115 3115 3115 3115 3114 3113 3112 3111 3110 3110 3109 3108 3107
Wind_Speed
15 14 16 16 14 12 12 11 10 9 8 8 8 9 10 9 8 8 8 8 9 10 11 12 13 14 15 16 16 16 17 17 17 18 18 18 18 18 18 17 16 15 15 14 13 12 12 10 10 9 8 8 8 8 8 7 7 7 7 7 8 10 10 10 10 10 10 10 10 10 10 9 9 8 7 7 6 5 7 9 9 11 12 13 13
16 15 16 16 15 13 12 12 11 10 8 8 8 8 9 8 7 6 6 6 7 8 9 10 11 13 14 14 15 15 15 16 17 17 17 17 17 18 18 17 17 16 15 15 14 13 12 11 10 9 9 9 9 9 8 8 8 8 8 8 9 10 10 10 10 10 11 10 10 9 9 9 8 8 7 7 6 6 8 10 10 12 13 13 14
18 16 17 16 16 14 13 13 11 11 9 8 8 8 8 7 6 5 4 5 5 6 7 8 10 11 12 13 13 13 14 15 15 16 16 16 16 17 17 17 16 16 16 15 15 14 13 12 12 11 10 9 9 9 9 9 9 9 9 9 10 11 10 10 10 10 10 10 9 8 9 9 8 8 7 7 7 8 10 11 12 13 14 13 14
18 17 18 17 16 15 14 13 12 11 9 8 8 8 7 7 6 4 3 3 3 4 5 7 8 10 10 11 11 11 12 13 14 14 15 15 15 16 16 16 16 16 16 16 15 14 14 13 13 12 11 10 9 9 9 9 9 9 9 9 10 10 10 10 9 9 9 9 8 6 9 10 9 9 8 8 8 10 12 12 13 14 13 13 13
17 18 19 17 17 16 14 14 12 12 10 9 8 8 7 7 5 4 3 2 2 3 4 5 7 8 8 9 10 10 10 11 12 13 13 14 14 15 15 15 15 15 15 15 15 14 14 14 13 13 12 11 10 10 9 9 9 9 9 9 9 9 9 9 9 9 8 9 9 8 11 12 11 11 10 10 10 11 12 13 13 13 13 12 12
16 19 19 18 17 16 14 14 13 12 11 9 8 8 7 6 6 5 3 2 1 1 2 4 5 6 7 8 8 8 9 9 10 11 12 13 13 13 14 14 14 14 15 15 14 14 14 14 14 14 13 13 12 11 11 10 10 9 9 9 9 9 10 11 11 10 10 11 12 14 16 15 14 13 13 12 11 12 12 12 12 12 12 12 12
16 19 20 18 17 16 15 14 13 12 11 10 8 8 7 6 6 5 4 3 2 1 1 2 3 4 6 6 7 7 7 8 9 9 10 11 11 12 13 13 13 14 14 14 14 14 14 14 14 14 14 14 14 14 13 13 12 12 11 11 11 10 11 12 11 11 11 13 15 17 17 16 15 14 14 13 12 12 11 11 11 11 11 11 11
16 19 21 19 18 17 15 14 13 12 12 11 9 8 8 7 6 5 5 4 3 2 2 1 2 3 4 5 5 6 6 6 7 8 8 9 10 11 11 12 12 13 13 13 13 13 14 14 14 14 14 14 14 14 15 15 14 14 13 12 12 11 12 11 10 10 12 14 16 17 16 15 14 13 13 12 12 12 11 10 10 10 10 9 9
15 19 21 20 20 18 16 15 14 13 12 11 10 9 9 8 7 6 5 4 3 3 3 2 2 2 3 4 5 5 5 6 6 7 7 7 8 9 10 11 11 12 12 12 12 13 13 13 13 13 14 14 14 14 14 14 14 14 13 13 12 12 12 11 11 11 13 15 16 14 14 14 13 12 12 11 11 11 10 9 9 9 9 8 8
15 19 22 22 21 19 18 16 15 14 13 12 11 10 9 8 7 6 5 5 4 4 4 4 3 2 2 3 4 4 4 5 5 5 6 6 7 7 8 9 10 10 11 11 11 12 12 12 12 13 13 13 14 14 14 14 14 14 13 13 12 12 10 9 10 12 15 15 13 12 12 12 11 11 10 10 9 9 9 8 7 7 7 7 7
15 19 23 23 22 21 19 18 16 15 14 13 12 11 10 8 7 6 6 5 5 5 5 4 4 3 3 2 3 3 3 4 4 4 5 5 5 6 7 7 8 9 10 10 10 11 11 11 11 12 12 13 14 14 14 14 14 14 13 13 13 11 9 7 7 10 14 13 10 11 11 10 9 9 8 8 7 7 7 6 5 5 5 5 5
15 20 23 24 24 22 20 19 17 16 15 14 12 12 10 9 8 7 7 6 5 5 5 5 4 4 3 2 2 2 2 3 3 3 4 4 5 5 5 6 7 8 8 9 9 10 10 10 10 11 11 12 13 13 14 14 13 13 13 13 12 10 9 7 7 10 12 10 10 10 9 8 8 7 7 6 5 5 4 4 4 4 4 4 3
15 21 24 24 24 23 21 19 18 17 15 14 13 12 12 11 10 9 8 7 5 5 4 4 4 4 3 2 2 2 2 2 2 3 3 3 4 4 4 5 6 6 7 8 8 8 9 9 9 9 10 11 11 12 13 13 13 12 11 11 10 9 8 7 7 11 10 8 9 8 8 7 6 6 5 5 4 4 3 3 2 3 3 3 3
14 21 25 25 25 23 22 20 19 17 16 15 14 13 13 12 11 10 8 7 6 5 4 4 4 4 3 2 2 2 2 2 2 2 2 3 3 3 3 4 5 5 6 7 7 7 8 8 8 8 9 9 10 10 11 11 11 10 9 9 8 8 8 7 6 9 8 6 7 6 5 4 4 4 3 4 4 4 3 3 3 3 3 4 4
15 19 24 24 24 23 22 21 19 18 16 15 15 14 13 13 12 10 9 8 6 5 5 4 4 4 3 2 2 2 2 2 1 1 2 2 2 2 3 3 3 4 4 5 6 6 6 6 7 7 7 8 8 8 9 9 9 8 8 7 7 7 7 7 6 6 5 4 5 4 3 3 4 3 4 5 5 6 6 6 5 5 5 5 6
16 17 23 24 24 23 22 21 20 18 17 16 15 14 14 13 12 11 10 8 7 6 5 5 5 5 4 2 2 2 2 2 2 1 1 2 2 2 2 2 2 3 3 3 4 4 5 5 5 6 6 6 6 7 7 7 7 6 6 5 5 6 6 6 6 5 4 4 5 4 4 4 4 4 5 6 7 8 9 9 9 9 8 8 8
15 17 23 23 23 23 22 21 20 19 17 16 16 15 14 13 13 12 11 9 8 7 6 6 6 6 4 3 2 2 2 2 2 1 2 2 2 2 3 3 2 2 2 2 2 3 3 4 4 4 4 5 5 5 5 5 5 4 4 4 4 5 6 6 6 6 4 4 5 4 4 5 5 5 6 6 7 8 9 10 11 11 12 12 12
14 17 21 22 22 23 22 21 20 19 17 17 16 15 15 14 13 12 11 10 9 8 7 7 7 6 5 3 3 2 2 2 2 2 2 2 2 3 3 3 3 3 2 2 2 2 2 2 3 3 3 3 3 3 4 4 4 4 4 3 4 4 5 6 7 6 5 5 6 5 5 5 6 6 6 7 7 8 9 10 11 11 12 13 13
14 17 20 21 21 22 21 21 20 19 18 17 17 16 15 15 14 13 12 11 10 9 8 8 8 7 6 4 4 3 3 3 3 3 3 3 3 3 4 3 4 4 4 3 3 3 3 3 3 3 3 3 3 3 3 3 4 4 5 5 5 6 7 8 8 8 7 6 6 6 6 6 7 7 8 8 8 9 9 10 10 11 12 12 13
14 17 20 20 20 20 21 21 20 19 19 18 18 17 16 16 15 14 13 12 11 10 9 9 9 8 7 5 5 4 3 3 3 3 3 4 4 4 4 4 5 4 5 5 4 4 5 4 5 5 5 5 5 5 5 5 6 6 7 7 8 8 9 10 11 11 11 9 8 9 8 8 9 8 9 9 10 10 10 10 11 11 12 12 13
16 19 19 19 19 20 21 21 21 20 20 20 19 18 17 17 16 15 14 13 12 12 11 11 10 9 8 7 6 5 4 4 4 4 4 4 5 4 5 5 6 5 5 5 6 6 6 6 6 6 8 9 8 8 8 8 9 9 9 10 10 11 11 12 12 13 15 13 10 11 11 11 11 11 11 10 11 11 11 12 11 12 12 12 13
16 18 19 18 19 21 21 21 21 21 20 19 19 19 18 18 17 16 15 14 13 13 12 11 11 10 9 8 7 6 5 4 4 4 5 5 5 5 5 6 6 7 6 6 6 7 7 8 8 8 10 11 11 11 11 11 11 12 12 13 13 12 12 14 14 13 16 17 13 13 14 14 14 13 13 12 12 12 13 13 13 12 12 12 13
15 17 17 17 19 20 21 21 21 20 20 19 19 19 19 18 18 17 16 15 14 14 13 12 12 11 10 9 7 7 6 5 4 4 5 5 6 6 6 6 7 8 8 8 8 8 8 8 9 10 10 12 13 14 14 13 13 13 13 14 14 15 14 14 15 15 17 18 15 15 16 16 17 16 16 15 14 14 13 14 14 14 13 13 13
15 16 16 16 18 19 19 20 20 20 20 19 19 19 19 19 18 17 16 16 15 15 14 14 13 12 11 9 8 8 7 6 5 5 5 5 6 7 7 7 8 8 9 9 10 10 10 10 10 11 11 12 14 15 15 15 14 13 13 14 15 17 17 15 15 16 18 19 17 17 18 18 18 18 18 18 17 16 15 15 15 15 15 14 13
16 16 17 17 17 16 17 18 18 19 19 20 20 19 19 18 18 18 17 16 15 15 15 14 13 12 10 9 8 8 7 7 6 6 6 6 7 7 7 7 8 9 8 9 11 11 12 12 12 12 12 13 14 14 15 17 16 14 13 15 17 18 18 17 16 17 19 21 20 19 20 20 19 20 21 20 19 18 17 17 17 16 16 15 14
18 18 17 17 17 16 16 17 17 17 17 19 19 19 18 18 18 17 16 16 15 15 15 14 12 10 9 8 8 7 7 8 7 7 7 7 7 6 6 6 6 7 8 8 9 11 11 12 12 13 14 14 15 15 15 17 18 18 17 17 17 18 18 18 18 17 19 23 22 21 21 21 21 21 22 22 22 20 19 19 18 17 17 16 15
20 20 19 18 18 18 17 18 17 16 16 17 17 17 17 17 17 16 16 15 15 14 13 12 10 8 8 8 8 8 8 8 7 7 6 6 5 5 5 5 6 6 7 8 7 8 8 9 10 11 13 14 14 14 14 15 16 18 19 19 18 17 17 18 19 18 20 23 22 21 22 22 23 23 24 24 24 23 22 21 20 19 17 17 16
21 21 20 19 19 19 19 18 17 17 16 15 15 16 16 15 15 15 14 14 13 12 11 10 9 9 9 9 9 9 9 7 7 6 6 7 6 5 5 6 7 7 7 7 7 6 6 7 8 8 9 10 11 12 13 14 15 16 17 18 19 20 18 18 19 20 22 25 25 23 23 24 25 26 26 26 25 25 24 23 22 20 18 17 17
22 21 20 20 20 20 20 18 17 18 17 15 15 16 15 13 12 12 12 12 12 11 10 9 10 10 10 10 10 10 8 7 7 5 5 6 5 4 5 5 6 6 6 6 6 6 6 6 7 7 8 9 10 10 12 13 14 16 17 17 18 20 21 20 20 20 23 27 26 25 25 25 26 27 28 27 26 27 27 25 24 22 20 18 17
22 21 20 20 19 19 20 18 17 18 16 15 14 14 12 11 11 11 11 11 11 10 9 9 9 9 10 10 9 7 6 5 7 5 3 3 3 3 3 3 4 5 5 5 5 5 6 6 7 7 9 10 10 10 11 11 11 13 16 18 17 17 19 20 19 19 22 25 25 25 25 25 25 26 27 27 27 28 28 26 25 23 21 19 18
22 20 20 20 19 20 20 18 18 16 15 14 13 11 10 11 11 10 11 11 10 10 9 9 9 9 9 8 6 4 4 4 4 4 2 2 3 4 3 2 3 4 5 5 5 6 6 7 8 8 9 10 11 11 12 12 12 12 14 17 18 17 18 19 19 19 19 20 22 24 25 25 25 25 26 27 27 28 27 25 24 23 22 20 19
23 21 21 22 22 21 19 18 17 15 14 13 11 10 10 11 10 10 10 10 9 9 9 9 9 8 7 5 3 3 2 1 1 2 2 2 2 2 2 3 3 4 5 6 6 7 8 8 9 9 10 11 11 13 13 13 13 14 14 14 16 18 20 20 20 21 20 19 21 23 24 25 25 24 25 26 26 26 25 24 24 24 22 21 20
23 21 22 23 22 20 19 17 16 15 14 11 10 11 10 10 10 10 9 9 9 8 9 9 8 7 5 4 3 2 1 2 2 2 2 2 1 1 2 3 5 5 6 8 8 8 9 9 10 10 10 11 11 12 13 14 13 14 15 14 15 17 20 22 22 23 23 22 23 25 24 25 26 25 24 24 23 24 23 22 23 24 23 21 20
23 21 22 23 21 19 18 16 15 14 12 11 11 11 10 10 10 9 8 7 7 8 8 7 6 5 4 4 3 3 3 2 2 2 2 1 1 1 2 4 5 7 8 8 9 9 9 9 10 10 11 11 12 13 13 13 14 14 15 16 16 18 19 20 22 24 25 25 25 26 26 24 25 25 23 22 22 22 23 22 22 23 23 21 19
22 21 21 22 20 18 16 15 14 13 12 12 11 10 10 10 8 7 6 6 6 7 7 6 6 5 5 4 4 4 4 3 2 1 1 1 2 3 4 5 6 8 9 9 9 9 9 10 10 11 12 12 12 13 14 14 14 15 16 17 17 18 18 19 21 23 25 26 25 25 25 24 24 23 22 22 21 21 22 22 23 23 24 22 20
20 20 19 19 18 16 15 14 14 13 13 12 11 9 9 8 7 7 7 7 7 7 7 7 6 6 6 6 5 5 4 4 2 1 1 1 2 4 5 6 8 8 9 9 9 9 10 10 11 12 13 13 14 14 15 15 15 16 17 18 18 18 19 20 20 22 24 25 24 24 24 24 23 21 21 22 21 20 20 21 22 23 24 23 22
15 16 16 16 14 12 12 12 12 12 12 11 10 8 9 8 8 8 8 8 8 8 7 7 7 8 8 7 6 5 4 3 2 2 2 2 3 4 6 7 8 8 9 9 9 10 11 11 12 14 15 16 15 16 16 16 16 17 18 18 19 19 19 20 21 21 22 22 23 23 23 24 23 21 20 21 21 20 19 19 21 23 24 24 23
10 9 10 9 8 7 9 11 11 11 10 10 9 8 10 10 9 8 8 9 10 8 8 8 7 7 7 7 6 6 4 3 2 2 2 3 4 4 6 7 7 8 9 9 9 10 12 13 14 15 16 17 16 16 16 17 17 18 18 19 19 19 18 19 20 20 20 21 22 22 23 23 22 21 21 20 20 20 18 18 21 23 23 23 23
10 8 6 6 7 9 11 11 10 10 10 9 8 9 10 10 9 8 10 11 11 8 8 8 9 10 10 9 8 6 4 3 2 3 3 4 5 5 6 8 7 8 8 10 11 11 12 14 14 14 15 15 15 15 14 15 17 17 17 18 18 17 17 17 18 19 19 20 20 20 21 21 21 21 21 21 21 20 19 20 20 22 23 23 23
10 9 6 6 10 11 11 11 11 11 10 7 8 9 10 10 9 9 11 11 10 8 8 9 11 12 12 10 7 5 4 2 2 4 4 5 5 6 7 8 8 8 9 10 12 13 13 13 13 12 12 13 14 14 13 14 15 15 15 15 16 16 15 16 17 18 18 18 18 19 19 19 19 19 20 22 22 20 20 20 19 20 23 24 23
11 11 7 7 9 10 9 9 11 11 8 8 10 11 10 10 10 10 10 8 8 9 9 9 8 8 6 5 4 3 2 2 3 4 6 6 7 7 8 8 9 9 10 10 12 13 13 12 11 10 10 11 12 13 12 13 14 14 14 13 14 15 15 15 15 16 17 17 17 17 17 17 18 19 20 21 21 22 21 20 20 20 21 23 23
10 10 8 7 7 9 10 10 11 10 8 11 13 11 10 10 10 10 8 7 7 8 7 7 6 5 3 3 2 1 1 2 4 5 7 8 8 8 8 8 9 9 10 11 12 13 13 12 11 10 10 10 11 11 11 12 13 14 14 13 12 13 14 14 14 15 17 18 17 16 16 16 17 18 19 18 19 21 21 19 21 20 21 23 23
8 8 8 9 7 8 9 9 10 10 10 12 11 9 8 10 11 10 8 7 7 7 7 6 5 2 2 2 2 2 3 4 5 6 7 8 8 8 8 9 9 9 11 12 13 13 12 12 12 11 11 11 12 12 11 11 11 13 14 15 13 13 14 14 14 15 17 17 17 17 16 16 17 17 17 17 17 19 19 18 20 20 21 24 23
9 9 10 10 9 9 8 8 9 11 11 10 8 9 10 12 10 9 8 8 7 7 7 6 5 3 2 3 3 3 4 5 6 7 8 8 8 9 9 9 10 10 11 12 13 13 13 13 12 12 12 12 12 13 13 12 12 12 13 14 15 15 15 16 15 15 15 16 16 17 17 17 17 17 17 18 18 19 19 19 19 18 19 22 23
11 11 11 11 11 10 10 9 10 13 13 9 8 10 11 12 11 10 9 8 8 8 7 6 5 4 4 4 4 4 5 7 7 8 8 8 9 9 10 10 10 10 11 12 12 12 13 13 12 12 13 13 13 14 14 14 14 14 14 15 16 16 16 17 17 14 14 16 17 16 17 17 18 17 17 17 19 20 20 20 20 19 19 19 20
12 11 11 12 12 12 11 11 12 14 14 11 11 11 11 12 13 11 9 8 10 9 7 5 5 5 5 5 5 5 7 7 8 8 8 8 9 9 9 9 9 10 10 11 11 11 12 12 12 13 13 14 14 14 15 15 16 16 16 16 16 17 17 17 18 17 15 16 17 18 17 17 17 19 19 18 18 19 20 20 20 20 20 19 19
13 13 13 13 13 13 13 12 12 13 13 12 11 11 11 11 11 10 9 9 9 7 5 6 7 6 6 6 6 6 7 8 7 7 7 7 8 8 9 9 9 9 10 10 11 12 12 13 13 14 14 15 16 16 16 16 16 17 18 18 18 19 19 18 19 20 19 16 15 18 19 19 18 18 20 20 19 19 19 19 20 21 21 20 19
12 12 13 12 12 12 12 12 10 10 12 12 12 12 11 10 9 9 10 10 8 5 6 7 8 7 7 7 7 7 8 8 7 7 7 8 8 9 9 9 9 10 10 10 11 11 13 14 15 15 16 17 17 18 18 18 18 18 18 19 20 20 21 21 20 21 22 21 18 16 18 20 20 19 19 19 20 20 20 19 19 20 21 21 20
11 12 12 12 10 10 10 11 11 11 12 14 15 14 12 10 10 10 10 8 7 7 8 8 8 9 8 8 8 8 8 8 8 7 8 8 9 9 10 10 10 10 10 10 11 12 13 15 16 17 17 18 19 19 19 20 20 20 20 21 21 22 22 22 23 23 25 26 24 21 20 21 22 21 20 19 19 20 20 20 19 19 20 21 21
11 12 12 11 9 8 9 10 13 14 15 17 18 17 14 12 12 12 10 9 8 9 9 10 10 9 9 8 8 8 8 8 8 8 8 9 9 9 9 10 10 11 11 11 12 14 15 16 17 18 18 19 19 20 21 21 21 22 23 23 23 23 23 23 24 26 26 27 28 27 26 26 25 23 21 20 21 21 21 21 20 20 20 21 21
12 12 11 11 9 9 10 11 13 14 17 20 19 17 16 15 13 11 10 10 9 10 11 11 10 10 10 9 8 8 8 8 8 8 8 9 10 10 10 10 10 11 12 13 14 15 16 17 18 19 19 20 20 21 22 22 23 23 24 25 25 25 26 26 26 27 28 30 31 31 29 29 29 27 24 22 22 22 22 22 22 21 20 20 20
Wind_Direction
193 195 181 177 181 179 169 166 162 159 151 137 126 117 111 106 98 84 73 67 66 66 71 73 74 73 72 70 69 68 65 63 61 59 58 59 60 61 61 61 60 59 59 58 56 57 59 58 57 58 59 62 64 69 74 82 90 93 93 91 89 88 89 90 89 87 85 84 83 83 83 84 84 85 85 84 80 74 77 82 82 80 78 78 78
196 197 186 178 181 184 172 170 166 165 159 144 135 124 119 115 109 96 83 73 66 66 70 72 73 73 73 71 68 66 64 63 61 59 57 58 58 60 60 60 60 58 58 56 56 55 56 56 56 58 62 67 68 68 70 74 81 87 90 90 89 89 90 91 91 89 86 83 82 84 83 81 80 80 78 76 74 75 85 93 91 86 85 84 84
195 196 189 182 181 185 177 173 169 168 164 155 144 135 128 124 122 111 97 79 68 65 68 70 71 73 73 71 67 65 63 61 61 60 58 57 58 59 60 61 61 60 59 56 56 56 56 56 57 59 64 70 71 68 67 69 74 82 87 89 88 87 88 87 87 87 86 85 80 82 83 78 74 75 72 73 80 87 93 95 93 91 89 87 86
193 193 192 186 183 185 180 176 173 172 169 163 154 147 140 136 137 128 120 91 71 64 65 68 70 72 72 70 67 65 62 61 60 60 59 58 57 58 59 61 62 62 61 59 57 56 56 57 57 59 64 70 72 70 67 66 69 75 80 82 85 87 86 84 82 82 84 84 83 84 81 76 74 75 76 81 89 95 97 96 94 91 90 88 87
195 192 193 188 186 186 183 179 176 176 176 172 162 157 151 150 153 149 154 124 78 59 61 65 68 71 69 68 67 63 62 60 58 58 58 58 57 57 58 59 60 62 62 61 60 58 58 59 60 62 65 68 70 70 68 68 69 72 75 77 79 82 82 81 79 80 85 90 92 88 79 77 77 78 80 84 89 93 95 95 93 91 90 88 86
201 193 193 190 188 187 186 183 179 179 181 180 173 168 163 163 168 172 179 176 155 42 50 59 63 67 64 65 66 63 60 59 59 57 57 57 56 56 57 58 59 60 61 62 62 62 62 62 64 67 69 70 70 70 70 71 72 74 76 79 79 80 83 81 80 83 90 96 92 84 79 79 80 79 80 81 84 87 90 91 91 91 89 87 85
204 196 193 192 189 190 189 185 184 182 185 187 183 180 177 177 184 191 195 200 214 272 360 40 51 57 58 61 61 60 59 57 59 58 56 56 56 55 56 58 59 60 60 61 63 63 64 65 67 69 70 71 72 73 73 73 74 75 76 78 81 82 85 86 87 89 90 89 85 82 82 82 82 82 82 81 81 80 82 85 88 88 86 85 83
207 198 194 193 191 192 191 189 188 187 189 192 192 190 188 190 198 206 213 220 230 256 283 335 26 42 47 53 54 55 55 54 55 56 55 55 54 54 56 57 59 60 60 61 62 64 65 66 68 70 72 73 74 75 76 76 75 75 75 75 77 78 80 84 85 85 83 79 78 82 86 86 85 85 85 85 84 82 80 80 83 83 81 80 77
211 201 196 195 193 193 193 193 193 193 195 197 200 198 198 200 208 217 227 237 248 263 276 298 336 15 30 41 45 50 49 49 50 52 52 52 52 51 54 57 59 60 61 62 63 65 66 67 69 72 75 77 78 79 79 79 78 77 76 73 73 74 76 80 80 78 77 78 81 86 88 87 87 86 87 88 88 87 85 81 79 79 77 74 70
218 208 200 198 194 194 194 196 197 198 200 203 207 206 207 208 215 224 235 245 253 265 275 290 306 332 6 27 35 44 42 44 43 47 49 49 50 49 51 55 58 60 62 63 64 65 67 69 71 75 77 80 81 80 80 80 80 79 78 75 71 71 74 78 82 77 73 78 84 86 86 87 88 88 88 88 89 89 88 84 80 78 74 70 65
225 213 203 200 196 195 195 198 200 202 204 207 211 212 214 215 221 228 237 246 252 264 273 286 300 315 343 7 19 34 33 37 35 38 42 44 45 44 47 51 56 59 61 63 65 67 69 70 71 75 78 80 82 82 81 80 78 78 76 74 70 68 72 76 80 76 74 79 79 77 79 81 82 84 85 86 88 88 88 87 81 76 70 64 57
229 217 208 204 199 197 198 200 201 203 206 210 214 215 217 217 222 228 235 243 248 261 271 284 298 309 326 345 355 12 20 26 25 28 34 36 38 37 40 46 52 54 59 61 63 68 70 72 71 73 77 79 82 83 83 82 79 76 74 73 71 67 66 70 73 75 81 85 79 74 70 67 69 67 68 67 70 76 78 81 76 67 55 43 35
225 216 209 206 202 200 200 202 204 205 208 212 216 217 220 219 222 226 232 238 243 255 266 279 291 301 314 325 329 343 360 11 9 13 21 28 31 32 33 38 46 50 55 58 61 65 67 70 71 70 73 78 80 82 83 83 81 77 74 70 68 64 55 47 54 74 83 85 80 75 69 60 54 50 45 40 37 40 38 40 35 29 22 5 357
222 214 209 207 204 203 203 204 207 208 210 214 218 221 222 223 223 226 231 235 238 244 256 270 281 292 296 300 308 323 335 345 353 356 5 16 17 20 22 31 41 47 51 55 59 60 62 63 65 67 67 73 76 79 81 81 80 77 72 65 59 52 44 25 24 70 78 72 76 68 63 53 35 31 16 8 357 352 346 340 339 336 335 331 329
226 213 208 207 205 205 206 207 209 211 212 215 219 223 225 227 227 228 229 231 234 236 247 258 268 278 278 286 300 306 314 315 328 342 345 355 354 360 7 21 36 41 47 53 56 55 56 55 54 58 59 63 68 72 76 77 77 74 69 60 51 38 35 26 14 56 68 47 62 49 35 26 359 351 334 332 323 317 313 308 307 303 302 302 302
225 210 205 206 206 207 208 209 212 212 213 217 221 224 226 228 227 229 229 229 231 231 238 249 258 266 269 277 284 292 304 303 307 322 320 322 325 331 342 351 17 31 37 42 51 52 51 51 47 48 49 51 53 58 64 68 69 69 65 50 39 26 18 23 11 27 47 27 46 41 11 4 347 335 323 319 314 308 303 299 295 293 290 289 288
221 207 203 206 207 208 210 211 214 215 215 218 222 226 228 228 227 229 229 229 229 228 233 242 253 260 264 268 271 279 282 293 295 294 286 281 295 305 318 323 330 356 16 18 26 37 40 40 37 36 37 37 39 41 43 46 51 50 50 38 26 15 1 5 359 357 10 4 22 29 5 357 345 335 325 317 314 307 303 299 294 290 287 285 284
219 206 203 206 210 210 211 212 214 217 217 219 224 227 230 231 229 229 230 230 228 228 231 239 249 254 256 257 258 259 254 264 265 262 263 262 271 284 296 303 308 313 319 334 341 346 355 11 14 15 10 11 16 15 15 8 8 10 8 5 355 347 341 343 341 335 332 343 358 359 349 343 334 328 322 317 314 310 307 304 299 294 290 285 282
218 206 203 208 212 212 212 213 214 216 217 220 225 227 230 231 231 230 230 231 230 228 229 235 243 247 249 251 250 251 251 255 258 257 257 258 255 265 279 285 294 298 301 304 303 307 311 321 331 329 326 328 328 326 327 323 322 325 323 323 322 320 320 323 324 316 310 326 334 324 328 325 320 318 314 315 311 308 307 306 304 301 297 291 285
209 203 205 210 212 212 213 214 215 216 217 220 223 226 229 231 232 232 231 232 230 229 227 231 240 246 246 246 248 248 249 250 256 259 258 263 257 253 265 274 281 287 291 292 290 292 294 300 307 309 307 304 301 299 299 299 298 298 300 301 304 306 308 311 313 311 306 311 312 307 312 312 310 311 309 312 310 307 305 303 304 303 302 298 292
203 202 208 210 209 212 214 215 216 217 219 222 224 227 229 230 233 232 232 232 230 230 230 232 238 244 246 247 248 249 249 251 254 257 250 253 258 252 251 262 272 278 283 286 288 289 289 290 291 297 301 300 298 296 296 296 294 294 293 292 293 295 299 302 303 304 301 304 306 300 302 305 305 304 304 307 307 308 307 304 302 303 304 302 298
203 204 209 207 206 212 214 216 219 219 222 225 226 229 230 232 233 235 234 233 232 233 232 232 237 241 246 249 249 250 251 250 247 251 252 251 257 257 253 255 262 267 272 275 281 284 286 286 282 285 293 297 299 300 299 297 296 296 293 292 291 291 294 297 298 298 296 301 306 298 298 300 300 299 300 302 304 308 309 307 304 301 304 304 301
204 205 208 206 205 211 213 217 219 221 225 226 228 230 232 233 234 236 235 234 235 236 234 231 236 240 244 248 252 255 255 251 245 250 262 266 266 269 269 265 265 265 267 268 270 272 274 277 279 282 287 293 298 299 298 297 297 295 292 291 291 292 293 294 297 298 294 298 303 299 299 299 298 298 298 299 301 304 307 308 307 303 301 303 302
203 204 206 208 209 211 214 217 219 221 224 226 229 230 232 234 236 237 237 238 238 238 238 236 238 243 245 247 252 259 265 267 268 269 270 274 276 279 279 275 273 271 269 270 269 267 268 269 274 278 282 288 294 295 295 296 296 294 292 292 292 293 296 295 295 296 292 295 299 297 298 298 296 297 296 296 296 298 301 305 307 305 301 299 300
201 202 204 209 214 215 216 218 222 223 223 226 229 230 233 235 238 240 240 242 243 244 245 245 246 247 246 247 253 263 273 278 283 286 283 281 281 283 282 283 282 279 278 276 272 270 269 270 271 273 277 281 286 290 295 298 298 298 296 296 296 294 294 293 293 293 289 292 296 293 293 293 293 294 294 294 292 292 294 299 303 304 302 298 296
200 203 205 209 214 215 217 220 226 228 224 225 227 230 234 237 240 242 244 246 247 249 250 251 251 250 246 247 255 264 272 280 283 284 287 285 285 285 286 290 288 285 287 283 278 274 272 273 272 272 275 278 282 286 291 295 300 304 303 300 298 297 296 295 293 292 289 291 293 292 292 291 291 293 294 293 292 290 290 292 296 299 299 296 293
199 201 207 212 214 215 219 222 226 230 228 226 228 231 234 237 241 243 246 249 249 250 252 255 253 247 244 248 254 259 265 273 272 270 283 291 295 300 301 303 296 297 300 297 297 288 278 275 272 270 273 275 278 283 288 292 297 301 302 302 302 299 298 297 295 292 288 289 292 294 295 295 295 294 294 294 292 290 289 288 289 292 294 292 290
199 201 209 212 215 216 219 222 224 228 230 231 231 235 239 239 240 245 248 250 251 250 251 253 246 242 244 249 251 255 262 267 266 276 300 300 304 314 317 319 317 325 328 321 323 316 304 294 288 282 279 280 283 291 298 301 303 300 298 301 303 301 298 295 294 293 290 291 294 296 296 297 297 295 294 294 292 290 288 287 286 286 288 289 287
200 203 210 213 216 217 219 221 223 226 231 234 235 240 246 247 245 247 250 250 250 248 246 243 242 245 247 250 252 257 269 276 280 302 315 300 314 338 335 337 330 339 349 342 341 332 321 316 309 301 298 298 298 301 303 305 306 305 303 301 301 300 298 296 293 292 291 292 296 296 297 298 298 297 296 294 292 291 288 285 284 284 285 285 284
202 206 211 213 215 217 219 219 221 227 233 238 241 247 252 252 251 248 248 248 247 248 247 245 246 247 247 251 256 263 278 290 302 319 316 300 345 18 7 360 347 353 1 353 345 331 324 325 319 310 307 305 303 302 300 299 299 301 304 304 304 298 295 296 294 294 291 291 295 297 298 299 299 298 296 292 290 292 290 282 281 281 281 283 282
204 209 212 213 213 215 215 215 221 228 235 241 246 251 249 248 250 247 247 249 249 251 249 246 245 243 245 250 259 274 292 306 325 348 30 11 18 33 28 22 5 356 354 347 337 327 327 326 321 314 308 306 306 303 299 298 297 297 298 301 304 301 298 298 298 299 296 293 297 297 298 299 299 298 296 294 290 292 291 278 276 278 277 279 278
205 207 209 209 210 212 212 213 220 228 234 241 244 242 239 242 247 246 248 251 251 250 247 243 238 237 241 247 265 283 295 320 47 52 75 52 28 33 7 351 345 340 337 335 329 325 324 319 315 310 307 306 304 302 299 297 297 294 291 292 296 297 298 298 298 299 297 298 300 298 298 297 296 295 295 296 290 289 290 276 271 276 276 275 275
200 199 204 206 207 209 211 213 217 225 233 238 238 237 237 239 242 244 249 251 249 245 241 237 232 232 234 243 256 248 213 149 147 136 122 132 98 40 342 331 328 331 329 324 322 322 320 317 313 308 305 303 300 297 295 295 295 293 292 291 290 290 292 295 297 299 298 301 301 297 297 296 294 293 292 294 290 287 289 279 271 273 275 273 273
197 195 201 205 207 209 210 215 218 221 228 230 232 235 236 237 239 244 251 248 240 237 235 233 230 228 232 240 219 179 179 165 153 136 114 107 23 357 340 327 322 326 324 320 321 320 317 315 312 308 305 302 298 297 297 297 297 297 297 295 293 291 290 292 295 298 299 301 301 298 298 297 295 294 292 293 292 288 287 281 275 274 273 272 272
199 196 199 202 205 209 210 214 218 220 224 227 231 234 238 241 244 245 242 237 228 230 234 229 224 218 220 223 193 173 174 161 145 121 55 5 350 342 333 324 321 322 321 321 321 320 318 315 312 309 308 306 303 302 301 301 300 299 298 296 295 294 293 293 295 296 297 299 300 299 300 298 296 295 293 293 294 292 287 279 275 273 271 270 270
200 194 192 195 196 199 208 214 220 226 227 230 234 240 247 245 239 230 221 223 223 227 228 219 214 210 204 200 187 174 167 154 156 220 296 331 331 333 327 320 321 322 323 324 322 321 321 318 315 313 313 311 307 304 302 300 299 298 297 297 297 297 297 296 296 297 297 297 297 298 299 297 295 295 293 293 294 294 289 278 271 271 270 269 269
197 189 185 186 184 189 208 219 226 231 231 233 237 241 246 237 223 219 216 217 221 224 221 209 199 196 188 181 178 171 171 176 203 246 280 311 323 327 319 317 320 323 324 324 323 322 322 322 321 318 318 316 311 307 306 304 302 300 299 299 298 298 298 297 296 296 296 297 297 299 299 296 296 296 293 291 293 296 292 278 268 266 267 269 273
215 202 192 188 190 201 216 222 225 228 230 233 237 237 242 241 227 219 221 218 216 221 225 215 197 194 186 175 178 178 185 201 224 261 296 316 320 318 311 314 318 321 324 323 322 323 323 325 324 324 323 321 319 316 314 312 310 307 305 305 304 303 301 298 296 295 296 299 300 301 301 301 300 298 294 291 292 295 294 281 269 264 265 270 274
237 233 224 213 213 217 223 228 229 233 238 236 233 232 239 245 236 226 226 220 213 214 222 217 206 203 191 178 181 181 190 211 240 275 300 310 312 309 306 312 315 321 322 319 322 325 326 326 329 332 331 329 328 324 321 317 314 313 311 309 309 307 307 305 301 301 302 303 306 305 304 304 302 299 299 296 291 291 292 289 278 269 268 269 270
244 241 235 220 218 222 227 230 228 231 238 236 230 231 235 238 235 230 227 221 209 197 197 204 208 203 182 167 173 176 187 220 264 287 301 307 306 305 304 309 314 321 321 319 325 327 327 329 333 335 332 333 332 326 323 319 317 316 315 315 313 309 310 312 309 309 309 311 313 311 308 308 306 304 301 296 294 292 291 292 289 281 274 270 269
244 239 230 224 228 232 231 226 226 229 231 232 234 234 233 228 227 229 227 221 205 192 191 198 208 203 165 142 164 178 195 247 289 300 308 309 307 306 309 315 317 321 324 325 328 328 328 331 334 334 331 333 331 328 326 323 322 319 319 322 318 313 315 316 314 314 315 317 317 314 312 314 314 311 303 299 301 297 295 295 292 286 280 277 274
233 229 227 234 244 246 242 235 235 237 229 231 239 240 233 219 213 221 225 220 209 200 198 198 205 197 152 143 182 204 262 285 296 304 308 307 308 310 314 319 321 323 326 328 329 329 332 332 332 332 332 332 330 330 329 327 327 325 325 328 324 319 319 321 323 322 320 320 322 322 321 321 319 316 310 310 308 302 302 305 298 294 290 285 279
222 221 228 235 249 256 251 243 239 241 235 232 235 231 222 217 213 213 213 211 207 204 201 203 217 212 164 202 237 261 285 294 301 304 307 306 307 310 314 319 322 326 328 330 330 331 333 333 332 332 332 334 333 335 336 334 330 326 328 330 330 327 323 325 331 331 327 325 326 326 325 322 319 317 317 317 313 305 308 311 306 301 294 287 282
224 224 232 237 249 262 261 251 240 240 243 237 223 205 206 215 215 208 201 200 203 204 201 201 214 233 239 256 275 289 294 301 306 307 308 307 308 311 316 321 324 326 328 330 330 331 333 333 334 334 333 334 335 337 339 340 336 329 328 327 327 328 326 324 328 332 330 326 325 325 325 324 321 321 321 319 315 310 310 312 310 306 297 291 290
223 223 236 243 247 256 258 251 237 234 235 230 215 204 199 196 193 192 186 183 194 200 199 204 218 241 261 273 285 294 300 305 308 308 308 308 310 313 317 322 322 323 326 328 330 332 332 332 334 334 332 332 334 335 336 337 338 335 331 327 324 326 326 323 323 326 328 324 322 322 324 324 323 324 324 321 317 314 314 313 312 309 303 299 295
221 221 234 240 238 243 247 240 232 230 226 217 212 209 198 184 179 181 176 177 194 196 194 219 249 260 269 280 287 294 298 304 306 305 306 308 311 313 315 317 315 317 323 326 328 330 329 330 331 331 329 329 330 332 332 333 334 334 331 329 327 323 323 324 323 323 324 324 321 319 319 319 319 321 322 323 321 318 317 315 314 311 307 304 300
218 219 224 227 230 235 237 233 228 225 220 211 205 201 195 184 174 173 180 193 201 198 205 236 255 263 271 279 281 288 295 301 305 302 303 306 308 311 310 308 306 309 318 323 326 327 327 328 328 327 327 326 326 327 327 328 328 328 327 327 326 323 323 325 322 319 317 318 319 316 315 315 315 316 317 319 320 320 319 318 316 315 312 308 303
213 216 216 216 223 229 230 230 224 214 207 199 190 187 185 180 176 178 190 201 204 212 233 245 258 266 268 271 278 290 299 304 305 302 304 307 309 309 306 304 302 304 312 320 323 324 323 324 323 322 322 322 322 322 323 323 322 322 322 321 321 320 321 321 319 316 313 312 312 309 308 310 312 314 315 315 317 319 319 316 315 316 317 313 308
205 207 207 205 210 221 228 232 222 204 194 186 180 179 178 181 187 190 196 205 218 235 245 253 263 267 267 272 283 295 302 304 305 305 307 309 309 306 304 303 301 302 306 311 315 316 317 319 318 318 318 318 319 319 319 319 318 317 316 316 316 315 316 315 313 312 311 311 311 309 307 306 307 312 314 313 313 315 315 313 312 314 315 313 312
199 199 202 202 205 211 217 219 211 198 187 180 176 175 175 181 185 187 197 213 229 241 251 259 265 269 272 277 288 298 303 304 303 305 307 306 304 303 301 300 299 300 303 306 311 314 315 316 315 315 315 315 316 317 316 316 316 315 314 313 312 311 310 309 308 308 308 306 306 307 308 307 306 310 311 309 309 310 310 309 310 312 311 310 311
196 200 204 204 204 202 202 204 202 190 178 174 174 172 172 179 185 191 204 220 235 246 255 262 268 271 274 282 294 302 304 303 301 302 302 301 302 301 299 300 301 303 306 310 313 315 316 316 316 315 315 315 315 314 313 313 312 312 311 310 310 309 308 307 306 305 304 303 302 304 305 304 304 306 306 304 304 306 306 305 306 308 308 306 304